Overview Statistics Trail Chart Weather Telemetry Raw packets
 

This is the latest recevied weather packets stored in our database for station/object K4KMJ. If no packets are shown the sender has not sent any weather packets the latest 10 day(s).

<< 56 57 58 59 60 61 62 >>
Time Temp. Humidity Pressure Rain* Wind** Luminosity Snow
1788285241 27.22° C 97% 1018.7 hPa 2.29 mm - 371 W/m² -
1788284936 26.67° C 97% 1018.8 hPa 3.56 mm - 343 W/m² -
1788284632 27.22° C 96% 1018.9 hPa 2.29 mm - 318 W/m² -
1788284327 27.22° C 95% 1019.2 hPa 0.51 mm - 286 W/m² -
1788284022 27.22° C 95% 1019.4 hPa 0 mm - 251 W/m² -
1788283719 26.67° C 95% 1019.3 hPa 0 mm - 240 W/m² -
1788283417 27.22° C 94% 1019 hPa 0 mm - 236 W/m² -
1788283116 27.22° C 93% 1019.3 hPa 0 mm - 255 W/m² -
1788282815 27.22° C 93% 1019.4 hPa 0 mm - 261 W/m² -
1788282514 27.22° C 92% 1019.5 hPa 0 mm - 271 W/m² -
1788282209 27.22° C 92% 1019.3 hPa 0 mm - 256 W/m² -
1788281907 27.22° C 93% 1019.6 hPa 0 mm - 251 W/m² -
1788281602 27.22° C 93% 1019.6 hPa 0 mm - 239 W/m² -
1788281299 27.78° C 93% 1019.5 hPa 0 mm - 250 W/m² -
1788280994 27.78° C 92% 1019.6 hPa 0 mm - 253 W/m² -
1788280688 27.78° C 91% 1019.4 hPa 0 mm - 251 W/m² -
1788280383 28.33° C 92% 1019.5 hPa 0 mm - 245 W/m² -
1788280078 28.33° C 91% 1019.6 hPa 0 mm - 252 W/m² -
1788279778 28.33° C 92% 1019.8 hPa 0 mm - 251 W/m² -
1788279476 28.33° C 92% 1019.8 hPa 0 mm - 261 W/m² -
1788279176 28.33° C 92% 1019.9 hPa 0 mm - 266 W/m² -
1788278872 27.78° C 92% 1019.9 hPa 0 mm - 319 W/m² -
1788278568 27.78° C 92% 1019.8 hPa 0 mm - 301 W/m² -
1788278267 28.33° C 91% 1019.8 hPa 0 mm - 333 W/m² -
1788277962 28.33° C 90% 1019.8 hPa 0 mm - 346 W/m² -

* Rain latest hour (hover to see other rain measurements)
** Current wind speed in m/s (hover to see current wind gust speed)